Weather History for Wenatchee, WA

Change the Weather History Date:

Sunday, July 21, 2013

  Actual Average Record
Temperature  
Mean Temperature 70 °F 68 °F  
Max Temperature 93 °F 84 °F 105 °F (1994)
Min Temperature 47 °F 52 °F 47 °F (2013)
Degree Days  
Heating Degree Days 0 1  
Month to date heating degree days 11 44  
Since 1 June heating degree days 204 231  
Since 1 July heating degree days 11 44  
Cooling Degree Days 5 4  
Month to date cooling degree days 89 61  
Year to date cooling degree days 112 85  
Since 1 June cooling degree days 108 80  
Growing Degree Days 33 (Base 50)    
Moisture  
Dew Point 38 °F    
Average Humidity 22    
Maximum Humidity 35    
Minimum Humidity 10    
Precipitation  
Precipitation 0.00 in 0.02 in 0.04 in (1972)
Month to date precipitation T 0.45  
Year to date precipitation 7.75 9.83  
Snow  
Snow 0.00 in 0.00 in - ()
Month to date snowfall 0.0 0.0  
Since 1 June snowfall 0.0 0.0  
Since 1 July snowfall 0.0 0.0  
Snow Depth 0.00 in    
Sea Level Pressure  
Sea Level Pressure 29.74 in    
Wind  
Wind Speed 12 mph (NW)    
Max Wind Speed 24 mph    
Max Gust Speed 31 mph    
Visibility 10 miles    
Events      
T = Trace of Precipitation, MM = Missing Value Source: NWS Daily Summary

Daily Weather History Graph

Daily Weather History Graph

Search for Another Location

Airport:

Trip Planner

Search our weather history database for the weather conditions in past years. The results will help you decide how hot, cold, wet, or windy it might be!

Date:

Astronomy

Jul. 21, 2013 Rise Set
Actual Time 5:26 AM PDT 8:47 PM PDT
Civil Twilight 4:48 AM PDT 9:25 PM PDT
Nautical Twilight 3:59 AM PDT 10:14 PM PDT
Astronomical Twilight 2:55 AM PDT 11:17 PM PDT
Moon 7:46 PM PDT (7/21) 4:19 AM PDT (7/21)
Length of Visible Light 16h 36m
Length of Day
15h 21m
Waxing Gibbous, 99% of the Moon is Illuminated
Jul 21
Waxing Gibbous
Jul 22
Full
Jul 29
Last Quarter
Aug 6
New
Aug 14
First Quarter

Hourly Weather History & Observations

Time (PDT) Temp. Dew Point Humidity Pressure Visibility Wind Dir Wind Speed Gust Speed Precip Events Conditions
12:55 AM 75.0 °F 41.0 °F 29% 29.77 in 10.0 mi WNW 17.3 mph - N/A   Clear
1:55 AM 73.9 °F 39.9 °F 29% 29.77 in 10.0 mi WNW 11.5 mph - N/A   Clear
2:55 AM 71.1 °F 39.9 °F 32% 29.77 in 10.0 mi NNW 9.2 mph - N/A   Clear
3:55 AM 69.1 °F 39.9 °F 35% 29.77 in 10.0 mi NNW 8.1 mph - N/A   Clear
4:55 AM 69.1 °F 36.0 °F 30% 29.77 in 10.0 mi North 9.2 mph - N/A   Clear
5:55 AM 69.1 °F 35.1 °F 29% 29.78 in 10.0 mi NNW 9.2 mph - N/A   Clear
6:55 AM 72.0 °F 35.1 °F 26% 29.78 in 10.0 mi NNW 10.4 mph - N/A   Clear
7:55 AM 73.9 °F 35.1 °F 24% 29.79 in 10.0 mi NW 12.7 mph - N/A   Clear
8:55 AM 77.0 °F 37.0 °F 24% 29.79 in 10.0 mi NW 11.5 mph - N/A   Clear
9:55 AM 81.0 °F 39.0 °F 22% 29.78 in 10.0 mi NW 9.2 mph - N/A   Clear
10:55 AM 84.0 °F 39.0 °F 20% 29.77 in 10.0 mi WNW 10.4 mph - N/A   Clear
11:55 AM 87.1 °F 37.9 °F 18% 29.76 in 10.0 mi West 6.9 mph - N/A   Clear
12:55 PM 90.0 °F 39.0 °F 17% 29.74 in 10.0 mi West 5.8 mph - N/A   Clear
1:55 PM 91.9 °F 37.9 °F 15% 29.73 in 10.0 mi East 3.5 mph - N/A   Clear
2:55 PM 93.9 °F 35.1 °F 13% 29.71 in 10.0 mi East 4.6 mph - N/A   Clear
3:55 PM 95.0 °F 37.0 °F 13% 29.69 in 10.0 mi Variable 3.5 mph - N/A   Clear
4:55 PM 95.0 °F 37.9 °F 14% 29.68 in 10.0 mi Variable 6.9 mph - N/A   Clear
5:55 PM 97.0 °F 32.0 °F 10% 29.66 in 10.0 mi NW 19.6 mph - N/A   Clear
6:55 PM 93.0 °F 32.0 °F 12% 29.67 in 10.0 mi WNW 24.2 mph 31.1 mph N/A   Clear
7:55 PM 89.1 °F 37.0 °F 16% 29.69 in 10.0 mi WNW 21.9 mph - N/A   Clear
8:55 PM 84.9 °F 37.9 °F 19% 29.71 in 10.0 mi WNW 19.6 mph - N/A   Clear
9:55 PM 81.0 °F 42.1 °F 25% 29.73 in 10.0 mi WNW 18.4 mph - N/A   Clear
10:55 PM 79.0 °F 42.1 °F 27% 29.74 in 10.0 mi WNW 16.1 mph - N/A   Clear
11:55 PM 77.0 °F 42.1 °F 29% 29.74 in 10.0 mi West 13.8 mph - N/A   Clear